Vorticity
nan nan nan nan nan nan nan nan nan nan nan nan nan nan nan nan nan nan nan nan nan nan nan nan nan nan nan nan nan nan nan nan nan nan nan nan nan nan nan nan nan nan nan nan nan nan nan nan nan nan nan nan nan nan nan nan nan nan nan nan nan nan nan nan nan nan nan nan nan nan nan nan nan nan nan nan nan nan nan nan nan nan nan nan nan nan
nan 9 7 9 11 11 7 6 10 12 11 10 9 9 9 9 8 6 4 5 7 8 8 7 6 5 6 5 5 6 8 8 9 9 12 14 15 14 12 10 9 8 8 10 11 12 13 13 11 10 10 9 8 9 9 9 9 10 10 10 10 11 11 11 12 12 11 11 11 10 10 10 10 9 9 9 9 9 9 9 9 10 10 10 10 nan
nan 9 7 7 9 10 8 7 9 10 10 10 10 10 9 9 8 8 6 6 6 7 8 7 7 6 6 6 7 8 10 10 11 12 13 14 14 13 11 10 10 10 11 12 13 13 13 11 10 9 9 9 9 9 9 9 9 9 9 10 10 10 11 11 12 12 11 11 11 10 10 9 8 8 8 8 8 8 8 8 9 10 11 11 11 nan
nan 9 8 8 7 8 9 9 9 9 10 10 10 9 9 8 8 8 8 7 7 7 8 8 8 8 8 7 8 9 10 11 11 12 13 12 12 11 11 11 12 13 13 13 13 12 10 9 9 9 9 9 9 10 10 10 10 10 10 11 11 12 12 12 12 12 12 11 10 9 8 8 7 7 7 7 8 8 8 8 8 9 10 11 11 nan
nan 9 9 9 8 7 8 9 9 9 9 9 9 9 9 9 9 8 8 8 8 9 8 8 9 9 9 8 7 8 9 9 10 10 11 11 11 12 12 13 14 14 13 12 10 9 8 7 7 8 9 9 9 10 11 11 11 12 12 13 13 14 14 13 13 12 11 10 9 8 8 7 7 7 7 7 8 8 8 8 8 8 9 9 10 nan
nan 9 9 10 9 8 8 9 9 9 9 8 8 9 9 10 10 9 9 9 9 9 9 9 9 9 9 8 7 7 8 8 9 10 11 12 13 13 14 14 14 13 11 9 8 7 6 7 7 7 8 8 9 9 10 10 11 12 12 13 13 14 14 13 12 11 9 9 8 7 7 7 7 7 8 8 8 8 8 8 8 9 9 9 9 nan
nan 8 9 10 10 9 9 9 9 9 9 9 8 8 9 9 9 9 9 10 10 10 9 9 9 9 9 8 7 8 9 9 10 12 13 14 14 14 14 13 12 10 8 7 6 6 6 7 7 7 8 8 8 8 8 9 9 10 10 11 11 11 11 11 10 9 8 7 7 7 7 7 7 8 8 8 8 8 8 8 9 9 9 9 9 nan
nan 9 9 9 9 9 9 8 8 9 10 10 9 9 9 9 9 9 9 9 9 10 10 10 10 9 9 8 9 10 11 11 12 13 13 13 13 12 11 10 9 8 7 6 6 7 7 7 8 8 8 8 8 8 8 8 8 8 8 9 9 9 9 9 8 8 7 7 6 6 7 7 7 7 8 8 8 9 9 9 9 9 9 9 9 nan
nan 9 9 9 9 9 9 8 7 8 9 11 10 10 10 10 10 10 8 8 8 9 10 10 10 10 8 8 9 10 12 13 13 14 14 12 10 9 8 8 7 6 6 7 7 7 8 8 9 9 9 10 10 9 9 8 8 8 8 8 8 8 8 8 7 7 6 6 6 6 6 7 7 8 8 9 9 10 10 9 9 9 9 9 9 nan
nan 9 8 8 9 10 9 8 7 7 9 11 10 10 10 10 11 11 10 8 7 8 9 10 10 10 9 8 8 9 11 12 12 12 11 10 11 9 9 8 6 5 6 7 7 7 8 9 9 10 11 11 11 11 11 10 10 9 8 8 8 7 7 7 6 6 6 6 6 6 6 7 8 9 10 10 11 11 10 10 10 9 9 8 8 nan
nan 8 8 8 9 9 10 9 8 7 10 11 10 9 9 9 10 10 10 9 8 8 9 9 9 10 9 8 8 9 10 11 10 7 5 7 9 10 10 8 7 5 6 7 6 6 7 8 9 11 13 13 13 13 13 12 11 10 9 8 8 7 7 6 6 6 6 6 6 7 7 8 9 10 11 11 11 11 11 10 10 9 9 9 8 nan
nan 8 9 9 9 9 9 9 9 9 11 11 10 8 6 7 9 10 10 9 8 8 9 9 9 9 10 9 9 9 10 10 9 8 6 6 6 8 8 7 6 6 7 7 7 6 7 9 11 13 14 14 14 14 13 13 12 11 10 9 9 8 8 7 7 7 7 7 8 9 9 10 11 11 12 11 11 11 10 10 10 10 9 9 9 nan
nan 9 10 9 9 9 9 10 10 10 10 10 9 8 7 7 9 10 10 9 8 8 9 10 10 9 10 10 10 9 9 10 10 10 9 8 7 8 8 7 6 7 7 8 8 6 7 11 13 14 13 13 13 13 14 14 13 12 12 11 10 9 9 9 9 9 9 10 10 11 11 12 12 12 11 11 10 10 10 10 10 10 10 9 9 nan
nan 10 10 9 9 9 9 9 10 10 10 10 9 8 8 8 9 10 10 9 9 9 10 10 11 10 9 9 10 10 10 10 11 10 9 8 8 8 9 7 7 7 7 7 7 7 8 12 15 14 12 12 12 13 13 13 13 12 12 12 11 11 11 11 11 11 12 12 12 12 12 12 12 11 10 9 9 9 9 9 9 9 9 9 9 nan
nan 10 10 10 9 9 9 9 9 9 9 10 9 9 10 10 10 10 10 9 9 10 11 11 11 11 8 8 9 10 10 11 11 9 8 8 9 9 9 7 7 7 7 7 8 8 10 13 13 12 11 10 9 9 10 12 13 12 12 12 12 12 13 13 13 13 13 13 13 13 12 11 11 10 9 9 8 8 8 8 8 8 8 9 9 nan
nan 10 10 9 9 9 10 9 9 8 8 9 10 11 11 11 10 10 10 9 10 10 10 10 11 11 9 8 8 9 10 11 10 8 7 9 10 10 8 7 7 8 8 9 9 10 12 12 11 10 9 8 7 7 10 12 12 12 12 13 12 12 13 13 13 13 13 13 13 12 11 11 10 9 9 8 8 8 8 8 8 8 8 8 9 nan
nan 10 9 9 9 10 10 10 9 9 8 9 10 10 11 11 11 11 10 9 10 10 10 10 10 10 10 8 7 7 9 10 9 7 6 8 10 10 10 8 8 9 10 10 10 10 10 11 11 11 9 6 7 8 11 12 11 11 10 11 11 11 12 12 12 12 12 12 12 11 11 10 10 9 9 8 8 8 8 8 8 8 8 9 9 nan
nan 10 9 9 9 9 10 10 10 10 9 10 10 10 10 10 10 10 10 10 10 10 10 10 10 9 9 7 8 8 9 8 7 6 7 8 10 11 11 10 10 10 10 10 10 10 10 10 9 8 3 3 6 8 9 9 9 9 9 9 9 10 10 11 11 11 11 11 10 10 10 9 9 9 9 9 8 8 8 8 8 8 9 9 9 nan
nan 9 9 9 9 10 10 10 10 10 10 10 10 10 9 8 9 10 10 10 10 10 10 10 9 9 8 8 8 9 9 7 6 7 9 10 11 11 12 11 11 10 9 9 10 11 11 10 8 6 3 5 7 8 8 8 8 8 8 9 9 10 10 10 10 10 10 10 10 9 9 9 9 9 9 9 9 9 9 9 9 9 9 9 9 nan
nan 10 9 9 9 10 10 11 10 11 11 11 10 9 9 9 9 10 10 10 10 10 10 10 9 9 9 8 9 10 9 7 7 8 11 12 12 12 11 11 10 10 9 10 10 11 11 10 10 9 8 6 6 6 7 7 8 8 9 10 11 11 11 11 11 11 10 10 10 10 9 9 9 9 9 9 9 9 9 9 9 9 9 8 8 nan
nan 11 11 9 8 8 10 11 12 12 12 9 8 8 9 9 9 10 10 10 9 9 8 8 8 9 9 7 8 10 9 6 7 10 12 12 12 11 10 10 10 9 9 10 11 11 11 10 10 8 5 2 4 5 7 9 10 11 13 13 13 13 13 13 12 12 11 11 10 10 10 10 10 10 10 9 10 10 9 9 9 8 8 8 8 nan
nan 12 13 10 6 6 8 11 13 13 10 6 5 7 9 9 9 10 10 9 9 8 7 7 8 9 8 7 8 9 9 8 8 9 10 10 10 11 11 10 9 8 8 10 11 11 10 9 7 5 2 2 5 8 11 13 14 15 16 16 16 16 16 15 14 13 12 12 11 11 11 11 11 11 11 10 10 10 9 9 8 8 8 8 8 nan
nan 12 13 11 7 6 7 10 12 12 9 6 6 8 9 8 9 10 11 9 9 9 9 9 9 9 8 8 9 10 10 10 9 8 7 8 9 12 12 9 7 6 7 10 11 10 9 8 7 7 6 7 11 13 16 18 18 19 19 19 19 19 18 18 16 15 14 14 13 13 13 13 13 12 12 11 10 10 9 9 8 8 8 9 9 nan
nan 11 12 11 9 7 7 9 10 11 10 8 8 9 9 8 9 9 10 9 9 10 11 9 8 8 9 9 10 11 12 11 9 7 6 8 9 11 11 9 7 6 8 11 11 10 8 9 9 11 11 12 14 16 18 19 19 19 20 20 20 21 21 21 20 19 18 17 16 16 15 15 14 13 12 11 10 9 8 8 8 8 9 9 10 nan
nan 10 11 11 10 7 6 7 8 9 9 8 8 9 10 9 8 8 9 9 8 7 6 6 6 8 10 11 12 12 13 12 9 7 7 8 9 11 10 10 8 8 10 12 11 8 7 9 11 13 13 13 13 14 15 16 16 16 17 17 18 19 20 20 21 20 19 18 18 17 15 14 13 12 11 10 10 9 9 9 9 9 10 10 11 nan
nan 11 11 11 10 8 5 6 8 9 8 8 7 8 10 10 9 7 7 9 8 7 5 6 8 10 10 12 12 12 12 12 10 8 7 8 8 10 11 11 10 9 9 9 8 7 7 10 12 14 14 12 10 9 9 9 10 10 11 11 11 13 14 16 15 16 16 15 14 14 13 11 11 10 10 9 9 9 10 10 10 10 11 12 14 nan
nan 15 13 12 10 9 8 8 7 7 7 7 8 9 11 10 7 5 5 10 11 9 8 8 10 11 11 11 11 12 11 11 11 11 9 7 9 10 12 12 11 9 8 7 7 8 10 12 13 14 13 11 9 5 3 4 5 6 6 8 9 10 11 12 12 12 12 12 11 11 11 10 10 10 10 10 10 10 11 11 11 12 13 15 19 nan
nan 13 12 12 10 9 9 9 8 7 5 4 6 12 16 12 7 5 8 12 12 10 8 8 10 11 10 10 10 10 9 10 11 13 11 9 10 11 12 11 10 8 7 8 10 12 15 15 14 13 12 10 8 5 3 3 4 5 6 8 9 11 12 12 12 12 12 12 12 12 11 11 11 11 11 11 11 11 11 11 12 14 17 19 19 nan
nan 8 7 7 7 7 8 9 9 9 7 7 9 13 17 15 10 9 12 13 10 8 8 9 9 9 9 9 10 10 10 11 13 13 11 9 10 11 11 10 9 7 7 10 14 17 18 15 13 12 10 9 8 7 6 5 6 7 7 8 10 12 12 12 13 13 14 13 13 13 12 11 11 11 11 11 11 11 11 11 14 18 21 19 15 nan
nan 5 5 4 5 6 8 10 10 10 11 12 15 18 20 18 14 12 14 12 10 8 9 10 10 9 9 10 11 12 13 13 13 12 10 7 8 9 9 8 8 7 8 10 14 15 14 13 12 10 8 7 7 6 6 7 8 9 9 10 11 11 9 10 11 12 13 13 13 12 11 11 10 10 10 10 11 11 11 12 15 18 18 15 13 nan
nan 7 7 6 6 7 9 10 11 12 14 17 20 22 20 17 14 14 14 13 11 11 11 11 11 10 10 9 10 11 12 13 13 11 8 6 8 9 8 7 9 10 8 8 10 10 11 13 12 10 7 5 5 6 6 7 9 11 11 11 11 8 6 8 10 12 12 12 11 10 10 10 9 10 10 10 11 11 12 13 15 16 14 13 12 nan
nan 8 8 8 8 9 10 11 12 13 14 17 18 19 17 14 13 13 13 12 12 12 12 12 12 12 11 9 7 7 9 13 15 12 6 5 8 9 8 8 9 10 8 6 8 8 9 9 9 8 6 6 7 8 9 10 11 11 11 10 9 6 5 9 10 12 11 11 11 11 11 10 10 10 10 11 11 12 12 13 14 14 12 11 11 nan
nan 9 8 9 9 10 10 11 11 12 13 14 14 13 13 13 14 13 12 12 12 12 12 12 12 12 11 10 8 7 8 13 17 15 7 4 7 9 8 8 8 8 8 9 9 9 7 5 5 6 8 10 11 12 12 13 13 12 11 10 9 7 7 10 11 11 11 11 13 13 13 13 13 13 12 13 13 13 13 13 13 11 8 9 10 nan
nan 9 9 9 10 10 11 11 11 11 12 12 12 12 12 12 12 12 12 12 11 11 11 11 11 11 11 11 11 9 9 11 13 13 9 5 7 8 8 8 8 8 9 10 10 11 9 7 6 6 9 11 12 13 14 14 14 13 12 11 9 8 8 9 10 10 10 12 13 14 15 16 16 15 15 14 13 12 11 11 11 10 8 6 7 nan
nan 10 10 10 10 10 11 11 11 12 12 12 11 11 11 11 11 11 11 11 11 10 10 9 9 9 10 9 9 9 8 7 5 6 7 8 9 9 9 9 9 9 9 9 10 10 10 8 7 7 7 9 11 13 15 14 13 12 11 10 8 7 8 8 9 9 11 12 12 12 13 14 14 14 14 12 10 9 9 10 10 10 10 7 5 nan
nan 10 11 11 11 10 11 11 11 11 11 11 10 10 10 11 10 10 10 11 11 11 10 9 8 8 8 8 7 7 7 5 3 3 6 9 10 10 9 9 8 8 9 9 9 9 8 9 9 9 9 10 11 13 13 12 10 8 7 7 7 7 8 8 8 9 10 11 11 11 11 10 11 11 10 8 8 8 10 10 11 12 11 10 8 nan
nan 11 11 11 11 11 10 10 10 10 10 9 9 8 9 10 10 10 10 10 11 11 11 11 11 10 7 5 5 5 6 5 4 5 7 9 10 9 8 8 8 9 9 9 9 8 8 9 10 12 13 11 10 8 8 8 8 7 7 7 8 9 10 11 11 10 10 10 9 9 9 9 9 10 8 9 12 14 15 17 16 15 14 14 12 nan
nan 11 12 11 11 10 11 10 10 10 9 8 8 8 9 9 9 9 10 10 10 10 10 11 11 12 9 7 7 6 6 7 8 8 9 9 10 9 8 8 9 10 10 9 9 8 8 9 10 12 12 11 8 6 6 7 7 8 9 10 11 12 13 13 13 12 10 9 8 8 8 10 10 10 10 13 15 16 18 18 17 16 16 18 17 nan
nan 11 11 10 10 10 10 10 10 9 9 8 8 8 9 10 11 11 11 11 10 10 10 9 9 10 12 11 11 11 11 13 13 12 13 11 10 10 9 8 9 10 10 10 10 9 9 9 8 8 7 9 9 10 10 8 8 8 9 12 15 16 15 13 12 11 10 9 9 9 11 11 11 11 11 12 12 12 12 13 13 14 15 17 18 nan
nan 10 10 11 10 10 8 8 8 8 8 9 9 9 10 11 12 13 13 11 11 12 12 10 8 9 11 13 13 14 14 15 14 13 15 13 11 9 8 8 9 10 11 11 11 10 9 8 7 6 7 7 7 8 8 8 6 6 8 12 13 12 10 10 10 11 11 10 10 10 11 11 11 10 10 10 10 10 9 9 9 10 12 12 14 nan
nan 10 10 11 12 11 9 8 8 8 8 9 9 10 10 11 11 11 11 10 10 10 11 10 9 9 10 11 13 14 15 14 14 13 14 13 10 7 7 8 9 9 10 11 10 10 9 8 8 9 8 7 7 8 8 7 6 7 10 10 8 6 7 10 12 13 12 12 11 11 9 9 10 10 10 10 10 9 9 7 7 7 9 10 10 nan
nan 10 10 11 11 11 11 10 10 10 10 9 9 9 10 10 9 7 7 8 8 8 7 8 9 9 9 11 13 14 14 14 15 14 13 12 10 7 6 7 8 9 10 11 11 10 10 9 9 9 9 9 9 10 9 9 9 11 11 8 7 9 15 18 17 15 12 11 11 10 9 9 10 10 10 10 10 10 10 8 7 7 8 10 10 nan
nan 10 10 10 11 11 11 12 12 12 11 10 10 10 10 9 7 7 7 8 8 8 9 10 9 9 9 11 13 14 15 15 15 14 14 13 11 8 7 7 6 7 8 9 11 12 12 11 10 9 9 9 9 8 7 9 10 12 11 9 9 11 14 15 13 11 9 9 9 9 10 10 10 10 10 10 10 11 12 12 13 12 10 9 9 nan
nan 11 11 12 12 11 12 12 12 12 11 10 10 10 9 8 8 8 9 10 10 10 10 11 11 11 11 11 12 13 14 15 15 15 15 13 10 7 7 9 8 8 6 6 8 10 12 13 12 11 11 10 9 8 9 9 9 10 11 10 10 8 5 4 5 6 8 10 10 10 10 9 9 10 10 11 11 12 13 13 14 15 13 11 10 nan
nan 12 12 12 12 12 11 11 11 11 11 11 10 9 9 9 9 10 9 9 9 10 10 10 10 11 11 12 11 12 12 13 14 14 15 16 15 11 8 9 10 10 9 7 6 6 8 10 11 11 12 11 10 9 8 8 9 10 10 11 11 10 7 5 6 8 10 10 10 10 9 9 9 10 11 12 12 12 12 12 12 12 13 12 11 nan
nan 11 10 10 11 11 11 11 11 11 11 11 10 10 10 10 10 10 9 9 9 11 11 10 9 9 9 9 10 10 10 10 11 12 13 16 16 16 14 12 11 10 11 10 9 7 6 6 7 8 10 11 11 10 9 8 9 9 10 11 11 12 11 11 11 11 10 10 10 10 9 10 10 10 10 10 11 12 12 12 12 12 12 12 12 nan
nan 8 9 9 10 10 11 10 10 10 10 11 11 11 10 10 10 10 11 11 11 12 12 10 9 8 7 7 8 8 8 9 10 11 11 12 13 14 15 15 14 12 10 10 10 9 8 7 6 5 6 8 10 11 11 10 10 9 9 10 11 11 11 12 12 12 11 10 9 9 10 11 11 10 9 9 10 11 12 12 12 13 13 12 12 nan
nan 8 9 9 9 9 9 9 9 9 10 10 10 10 10 10 9 9 11 12 11 10 11 10 9 9 9 9 9 9 8 8 9 9 10 10 11 12 13 14 15 14 13 11 11 11 11 11 9 6 5 5 6 8 10 11 11 10 10 10 10 10 10 10 11 11 11 11 10 10 11 10 9 9 9 9 10 9 10 11 12 13 13 12 12 nan
nan 9 9 9 9 9 9 9 9 9 9 9 9 10 10 11 11 10 10 11 10 9 10 9 9 10 10 10 10 9 9 10 10 10 10 10 11 11 11 12 12 13 14 15 15 15 16 18 17 13 7 4 3 4 8 9 10 10 10 10 10 10 10 10 10 10 11 11 13 13 10 8 8 8 9 9 8 7 8 10 11 12 13 13 13 nan
nan 9 10 10 10 10 10 10 10 10 10 10 10 10 11 12 12 12 10 10 10 10 10 10 9 9 9 10 10 10 10 10 10 9 10 10 10 10 10 10 11 12 13 15 16 17 18 21 24 24 18 9 3 1 5 9 9 10 11 11 11 10 10 10 10 10 9 10 12 12 10 9 9 10 9 8 8 8 10 11 12 12 13 14 13 nan
nan nan nan nan nan nan nan nan nan nan nan nan nan nan nan nan nan nan nan nan nan nan nan nan nan nan nan nan nan nan nan nan nan nan nan nan nan nan nan nan nan nan nan nan nan nan nan nan nan nan nan nan nan nan nan nan nan nan nan nan nan nan nan nan nan nan nan nan nan nan nan nan nan nan nan nan nan nan nan nan nan nan nan nan nan nan
CAPE
4 5 6 7 7 6 3 5 7 7 3 4 4 4 4 4 4 4 3 2 2 1 0 1 1 0 nan nan 0 0 5 9 14 14 18 21 24 24 19 19 19 22 23 24 24 29 31 31 31 29 27 27 28 28 31 34 34 38 40 44 44 49 54 55 55 56 50 43 37 37 30 24 20 20 15 14 13 13 13 14 14 15 17 19 19 19
4 6 7 7 7 5 3 4 4 4 3 3 3 3 3 3 3 3 3 2 2 1 0 1 1 0 0 0 1 1 6 13 17 17 26 27 26 26 23 21 21 25 23 25 25 26 23 22 22 15 13 13 13 13 15 19 19 22 24 28 28 29 33 35 35 39 35 32 27 27 23 21 20 20 18 18 19 19 20 21 21 23 24 25 25 28
3 5 6 7 7 3 3 4 3 3 4 3 4 4 4 3 4 4 4 3 3 2 3 7 7 6 6 1 2 2 6 14 19 19 25 26 23 23 20 20 20 19 21 18 18 15 9 8 8 7 7 8 9 9 9 12 12 13 15 18 18 19 24 25 25 29 27 27 24 24 23 20 18 18 17 20 24 24 25 28 28 29 30 33 33 36
1 3 4 6 6 4 4 5 6 6 5 5 6 6 5 5 5 5 7 6 6 4 5 7 7 8 9 3 1 1 5 14 20 20 20 21 18 18 17 17 17 18 18 12 12 7 3 3 3 3 4 5 4 4 6 7 7 8 11 13 13 16 21 21 21 23 23 23 22 22 19 14 12 12 14 17 20 20 24 27 27 29 31 36 36 44
2 3 3 4 4 4 4 7 6 6 5 6 6 6 6 6 7 7 8 7 7 4 5 5 5 7 7 4 1 1 5 12 15 15 15 14 12 12 11 11 11 8 8 4 4 1 1 1 1 1 2 2 3 3 4 3 3 7 10 13 13 17 24 22 22 19 21 20 14 14 13 12 13 13 15 18 23 23 25 26 26 27 31 35 35 40
2 3 4 4 4 4 5 6 6 6 4 5 4 4 3 4 6 6 8 8 8 7 7 7 7 6 4 2 1 1 4 7 8 8 8 6 4 4 4 4 4 3 1 0 0 0 0 0 0 0 0 1 2 2 4 6 6 9 13 18 18 20 22 20 20 17 15 13 11 11 10 13 14 14 17 19 22 22 25 28 28 29 30 30 30 37
2 3 4 4 4 4 6 6 6 6 4 4 3 3 3 2 4 4 6 8 8 8 8 5 5 1 0 0 nan nan nan nan 0 0 nan nan 0 0 0 0 0 nan nan nan nan nan nan nan nan nan nan 0 2 2 4 6 6 10 14 16 16 16 17 15 15 12 12 9 9 9 10 14 16 16 17 19 20 20 24 27 27 30 32 34 34 34
2 3 2 2 2 3 4 4 5 5 5 6 4 4 2 3 2 2 0 nan nan nan nan nan nan nan nan nan nan nan nan nan nan nan nan nan nan nan nan nan nan nan nan nan nan nan nan nan nan nan nan nan nan nan 0 2 2 4 5 5 5 7 7 8 8 10 11 11 11 11 11 13 14 14 15 15 14 14 17 22 22 25 32 35 35 38
1 2 2 1 1 2 3 4 5 5 4 6 4 4 0 nan nan nan nan nan nan nan nan nan nan nan nan nan nan nan nan nan nan nan nan nan nan nan nan nan nan nan nan nan nan nan nan nan nan nan nan nan nan nan nan nan nan 0 1 1 1 4 6 8 8 9 9 10 11 11 12 13 14 14 13 13 13 13 15 16 16 21 25 32 32 38
1 2 2 2 2 3 3 2 1 1 0 2 nan nan nan nan nan nan nan nan nan nan nan nan nan nan nan nan nan nan nan nan nan nan nan nan nan nan nan nan nan nan nan nan nan nan nan nan nan nan nan nan nan nan nan nan nan 0 0 1 1 2 4 6 6 8 9 9 10 10 12 12 12 12 13 13 13 13 14 15 15 18 25 29 29 35
0 1 0 0 0 0 nan nan nan nan nan nan nan nan nan nan nan nan nan nan nan nan nan nan nan nan nan nan nan nan nan nan nan nan nan nan nan nan nan nan nan nan nan nan nan nan nan nan nan nan nan nan nan nan nan nan nan nan nan 0 0 1 2 3 3 5 7 9 9 9 10 11 12 12 13 15 18 18 17 18 18 19 22 27 27 36
nan nan nan nan nan nan nan nan nan nan nan nan nan nan nan nan nan nan nan nan nan nan nan nan nan nan nan nan nan nan nan nan nan nan nan nan nan nan nan nan nan nan nan nan nan nan nan nan nan nan nan nan nan nan nan nan nan nan nan nan nan nan 0 1 1 3 5 6 8 8 9 11 12 12 15 17 19 19 18 18 18 18 22 27 27 32
nan nan nan nan nan nan nan nan nan nan nan nan nan nan nan nan nan nan nan nan nan nan nan nan nan nan nan nan nan nan nan nan nan nan nan nan nan nan nan nan nan nan nan nan nan nan nan nan nan nan nan nan nan nan nan nan nan nan nan nan nan nan nan nan nan 1 2 3 7 7 9 11 13 13 17 19 20 20 20 21 21 20 21 24 24 29
nan nan nan nan nan nan nan nan nan nan nan nan nan nan nan nan nan nan nan nan nan nan nan nan nan nan nan nan nan nan nan nan nan nan nan nan nan nan nan nan nan nan nan nan nan nan nan nan nan nan nan nan nan nan nan nan nan nan nan nan nan nan 0 0 0 2 4 6 10 10 12 12 16 16 18 19 19 19 19 20 20 19 19 21 21 24
nan nan nan nan nan nan nan nan nan nan nan nan nan nan nan nan nan nan nan nan nan nan nan nan nan nan nan nan nan nan nan nan nan nan nan nan nan nan nan nan nan nan nan nan nan nan nan nan nan nan nan nan nan nan nan nan nan nan 0 1 1 2 3 5 5 6 9 11 13 13 15 16 16 16 17 17 17 17 17 15 15 17 18 18 18 20
nan nan nan nan nan nan nan nan nan nan nan nan nan nan nan nan nan nan nan nan nan nan nan nan nan nan nan nan nan nan nan nan nan nan nan nan nan nan nan nan nan nan nan nan nan nan nan nan nan nan nan nan nan nan nan 0 0 4 4 7 7 8 9 11 11 12 12 13 16 16 17 18 17 17 16 14 14 14 14 14 14 15 15 17 17 16
nan nan nan nan nan nan nan nan nan nan nan nan nan nan nan nan nan nan nan nan nan nan nan nan nan nan nan nan nan nan nan nan nan nan nan nan nan nan nan nan nan nan nan nan nan nan nan nan nan nan nan nan nan nan nan 2 2 5 8 8 8 9 11 11 11 13 12 13 15 15 15 16 15 15 14 13 13 13 13 14 14 15 14 14 14 14
nan nan nan nan nan nan nan nan nan nan nan nan nan nan nan nan nan nan nan nan nan nan nan nan nan nan nan nan nan nan nan nan nan nan nan nan nan nan nan nan nan nan nan nan nan nan nan nan nan nan nan nan nan nan 0 2 2 4 6 7 7 8 10 11 11 13 14 14 15 15 14 14 14 14 13 12 11 11 13 13 13 13 12 13 13 13
nan nan nan nan nan nan nan nan nan nan nan nan nan nan nan nan nan nan nan nan nan nan nan nan nan nan nan nan nan nan nan nan nan nan nan nan nan nan nan nan nan nan nan nan nan nan nan nan nan nan nan nan nan nan nan 1 1 3 5 6 6 7 8 10 10 11 12 13 14 14 13 13 13 13 13 12 13 13 13 14 14 13 13 14 14 13
nan nan nan nan nan nan nan nan nan nan nan nan nan nan nan nan nan nan nan nan nan nan nan nan nan nan nan nan nan nan nan nan nan nan nan nan nan nan nan nan nan nan nan nan nan nan nan nan nan nan nan nan nan nan nan 0 0 2 4 6 6 7 8 8 8 9 11 12 12 12 12 13 12 12 12 11 13 13 14 13 13 13 13 13 13 13
nan nan nan nan nan nan nan nan nan nan nan nan nan nan nan nan nan nan nan nan nan nan nan nan nan nan nan nan nan nan nan nan nan nan nan nan nan nan nan nan nan nan nan nan nan nan nan nan nan nan nan nan nan nan nan 0 0 2 3 5 5 6 6 6 6 7 8 9 12 12 11 12 13 13 12 11 12 12 13 13 13 13 13 12 12 12
nan nan nan nan nan nan nan nan nan nan nan nan nan nan nan nan nan nan nan nan nan nan nan nan nan nan nan nan nan nan nan nan nan nan 0 nan nan nan nan nan nan nan nan nan nan nan nan nan nan nan nan nan nan nan 0 0 0 1 2 3 3 4 4 6 6 6 7 8 10 10 10 11 11 11 13 12 12 12 12 12 12 13 12 13 13 13
nan nan nan nan nan nan nan nan nan nan nan nan 2 2 nan nan 1 1 nan nan nan nan nan nan nan nan nan nan nan nan nan nan nan nan 0 nan nan nan nan nan nan nan nan nan nan nan nan nan nan nan nan nan nan nan 0 0 0 1 1 2 2 2 3 3 3 4 6 7 10 10 10 11 12 12 13 13 13 13 13 12 12 12 12 11 11 12
nan nan nan nan nan nan nan nan nan nan nan nan nan nan nan nan nan nan nan nan nan nan nan nan nan nan nan nan nan nan nan nan nan nan nan nan nan nan nan nan nan nan nan nan nan nan nan nan nan nan nan nan nan nan 0 1 1 2 2 3 3 3 3 4 4 5 7 9 11 11 12 12 13 13 13 13 12 12 12 11 11 11 11 10 10 12
nan nan nan nan nan nan nan nan nan nan nan nan nan nan nan nan nan nan nan nan nan nan nan nan nan nan nan nan nan nan nan nan nan nan nan nan nan nan nan nan nan nan nan nan nan nan nan nan nan nan nan nan nan nan 0 2 2 3 5 6 6 6 7 6 6 9 9 11 12 12 13 13 12 12 13 12 12 12 11 11 11 10 10 11 11 11
nan 0 nan nan nan 0 2 17 21 21 nan nan nan nan nan nan nan nan nan nan nan nan nan nan nan nan nan nan nan nan nan nan nan nan nan nan nan nan nan nan nan nan nan nan nan nan nan nan nan nan nan nan nan nan nan 1 1 3 4 5 5 6 4 5 5 6 7 9 9 9 9 10 10 10 9 10 9 9 10 10 10 10 10 10 10 11
9 10 14 19 19 19 16 10 9 9 14 13 nan nan nan nan nan nan nan nan nan nan nan nan nan nan nan nan nan nan nan nan nan nan nan 0 nan nan nan nan nan nan nan nan nan nan nan nan nan nan nan nan nan nan nan nan nan 1 2 2 2 2 1 3 3 3 4 4 5 5 6 6 8 8 7 8 9 9 9 10 10 10 11 11 11 12
7 10 9 7 7 4 1 nan 1 1 7 13 20 20 2 nan nan nan nan nan nan nan nan nan nan nan nan nan nan nan nan nan nan nan nan 0 nan nan nan nan nan nan nan nan nan nan nan nan nan nan nan nan nan nan nan nan nan nan nan nan nan nan 0 0 0 1 2 3 4 4 4 5 5 5 6 6 7 7 7 9 9 11 11 9 9 7
nan nan nan nan nan nan nan nan nan nan 1 2 7 7 1 nan nan nan nan nan nan nan nan nan nan nan nan nan nan nan nan nan nan nan nan nan 2 2 nan nan nan nan nan nan nan nan nan nan nan nan nan nan nan nan nan nan nan nan nan nan nan nan nan nan nan nan 0 1 2 2 3 3 4 4 4 5 7 7 8 11 11 12 10 6 6 4
nan nan nan nan nan nan nan nan nan nan nan 0 0 0 0 nan nan nan nan nan nan nan nan nan nan nan nan nan nan nan nan nan nan nan nan nan 2 2 nan nan nan nan nan nan nan nan nan nan nan nan nan nan nan nan nan nan nan nan nan nan nan nan nan nan nan nan nan nan 0 0 1 2 2 2 3 4 5 5 6 9 9 9 6 3 3 4
nan nan nan nan nan nan nan nan nan nan nan nan nan nan nan nan nan nan nan nan nan nan nan nan nan nan nan nan nan nan nan nan nan nan nan 1 1 1 nan 0 0 nan nan 0 0 nan nan nan nan nan nan nan nan nan nan nan nan nan nan nan nan nan nan nan nan nan nan nan nan nan nan 0 0 0 1 2 3 3 6 8 8 9 4 4 4 4
nan nan nan nan nan nan nan nan nan nan nan nan nan nan nan nan nan nan nan nan nan nan nan nan nan nan nan nan nan nan nan nan nan nan nan nan 2 2 5 5 5 3 2 4 4 2 nan nan nan nan nan nan nan nan nan nan nan nan nan nan nan nan nan nan nan nan nan nan nan nan nan nan nan nan nan 0 1 1 4 4 4 7 6 4 4 3
nan nan nan nan nan nan nan nan nan nan nan nan nan nan nan nan nan nan nan nan nan nan nan nan nan nan nan 0 0 0 0 nan nan nan nan nan 2 2 7 4 4 2 1 2 2 2 1 0 0 0 nan nan nan nan nan nan nan nan nan nan nan nan nan nan nan nan nan nan nan nan nan nan nan nan nan nan 0 0 2 4 4 6 7 4 4 4
nan nan nan nan nan nan nan nan nan nan nan nan nan nan nan nan nan nan nan nan nan nan nan nan nan nan nan nan 0 0 0 nan 13 13 1 nan 1 1 3 2 2 1 1 1 1 1 0 0 0 0 nan nan nan nan nan nan nan nan nan nan nan nan nan nan nan nan nan nan nan nan nan nan nan nan nan nan nan nan 0 2 2 7 9 9 9 7
nan nan nan nan nan nan nan nan nan nan nan nan nan nan nan nan nan nan nan nan nan nan nan nan nan nan nan nan nan nan nan nan nan nan nan nan nan nan 2 1 1 1 1 1 1 1 1 0 0 1 0 nan nan nan nan nan nan nan nan nan nan nan nan nan nan nan nan nan nan nan nan nan nan nan nan nan nan nan 0 3 3 6 9 13 13 12
nan nan nan nan nan nan nan nan nan nan nan nan nan nan nan nan nan nan nan nan nan nan nan nan nan nan nan nan nan nan nan nan nan nan nan nan nan nan 0 1 1 1 2 2 2 1 1 1 1 2 1 0 nan nan nan nan nan nan nan nan nan nan nan nan nan nan nan nan nan nan nan nan nan nan nan nan nan nan 1 4 4 7 8 12 12 12
nan nan nan nan nan nan nan nan nan nan nan nan nan nan nan nan nan nan nan nan nan nan nan nan nan nan nan nan nan nan nan nan nan nan nan nan nan nan 0 1 1 3 3 3 3 2 2 1 1 1 0 nan nan nan nan nan nan nan nan nan nan nan nan nan nan nan nan nan nan nan nan nan nan nan nan nan 0 0 1 2 2 3 4 6 6 9
nan nan nan nan nan nan nan nan nan nan nan nan nan nan nan nan nan nan nan nan nan nan nan nan nan nan nan nan nan nan nan nan nan nan nan nan nan nan 0 2 2 3 4 4 4 3 3 1 1 1 nan nan 0 0 0 0 0 0 nan nan nan nan nan nan nan nan nan nan nan nan nan nan nan nan nan nan nan nan nan nan nan nan 0 1 1 3
nan nan nan nan nan nan nan nan nan nan nan nan nan nan nan nan nan nan nan nan nan nan nan nan nan nan nan nan nan nan nan nan nan nan nan nan nan nan nan 2 2 3 5 6 6 6 4 2 2 1 0 nan 0 0 nan 0 0 0 0 nan nan nan nan 0 0 nan nan nan nan nan nan nan nan nan nan nan nan nan nan nan nan nan nan nan nan 0
nan nan nan nan nan nan nan nan nan nan nan nan nan nan nan nan nan nan nan nan nan nan nan nan nan nan nan nan nan nan nan nan nan nan nan nan nan nan nan 3 3 4 6 8 8 7 5 3 3 2 2 1 1 1 1 1 1 1 2 0 0 0 nan 0 0 nan nan nan nan nan nan nan nan nan nan nan nan nan nan nan nan nan nan nan nan nan
nan nan nan nan nan nan nan nan nan nan nan nan nan nan nan nan nan nan nan nan nan nan nan nan nan nan nan nan nan nan nan nan nan nan nan nan nan nan nan 1 1 4 7 7 7 8 8 4 4 3 3 3 3 3 3 1 1 3 4 1 1 0 0 0 0 0 nan nan nan nan nan nan nan nan nan nan nan nan nan nan nan nan nan nan nan nan
nan nan nan nan nan nan nan nan nan nan nan nan nan nan nan nan 0 0 nan 0 0 nan nan nan nan 0 0 nan nan nan nan nan nan nan nan nan nan nan nan 0 0 5 5 6 6 7 8 7 7 4 4 3 2 2 1 1 1 2 2 1 1 1 1 0 0 0 nan nan nan nan nan nan nan nan nan nan nan nan nan nan nan nan nan nan nan nan
nan nan nan nan nan nan nan nan nan nan nan nan nan nan 1 4 3 3 nan nan nan nan 0 1 1 2 0 nan nan nan nan nan nan nan nan nan nan nan nan nan nan 2 4 4 4 5 5 7 7 5 4 3 2 2 1 1 1 1 1 1 1 1 0 nan nan nan nan nan nan nan nan nan nan nan nan nan nan nan nan nan nan 0 0 nan nan nan
nan nan nan nan nan nan nan nan nan nan nan nan 0 0 1 1 0 0 1 0 0 1 2 2 2 2 0 nan nan nan nan 0 nan nan nan 0 nan nan nan nan nan nan 0 3 3 5 4 5 5 4 3 4 2 2 1 1 1 0 0 1 1 1 0 nan nan nan nan nan nan nan nan nan nan nan nan nan nan nan nan nan nan nan nan nan nan nan
nan nan nan nan nan nan nan nan nan nan nan nan 1 1 nan nan nan nan 0 0 0 1 1 2 2 1 nan nan nan nan nan nan 1 1 nan 4 8 8 2 nan nan nan 0 nan nan 2 4 4 4 3 3 5 3 3 2 1 1 0 0 1 1 1 1 0 0 0 0 nan nan nan nan nan nan nan nan nan nan nan nan nan nan nan nan nan nan nan
nan nan nan nan nan nan nan nan nan nan nan 0 0 0 nan nan nan nan 1 0 0 1 1 3 3 1 nan nan nan nan nan nan nan nan nan nan 1 1 6 5 5 3 1 nan nan 0 1 3 3 4 5 4 3 3 2 1 1 0 0 0 0 0 0 0 0 nan nan nan nan nan nan 0 0 0 0 nan nan nan nan nan nan nan nan nan nan nan
nan nan nan nan nan nan nan nan 0 0 1 1 1 1 0 0 0 0 1 2 2 3 3 4 4 1 0 nan nan nan nan nan nan nan nan nan nan nan nan 0 0 4 3 2 2 0 0 3 3 5 4 4 2 2 0 0 0 0 0 nan nan 0 nan nan nan nan nan nan nan nan nan 0 0 0 0 0 0 0 nan nan nan 0 0 0 0 nan
nan nan nan nan nan nan 0 0 0 0 0 1 2 2 1 1 1 1 3 5 5 6 6 2 2 1 nan nan nan nan nan nan nan nan nan nan nan nan nan nan nan 0 2 3 3 8 6 2 2 4 4 3 1 1 0 0 0 0 0 0 0 nan nan nan nan nan nan 0 0 0 1 0 0 0 0 0 nan nan nan nan nan nan nan nan nan nan
nan nan nan nan nan nan nan nan nan nan nan nan nan nan nan 1 5 5 4 6 6 5 2 1 1 0 nan nan nan nan nan 0 nan nan nan nan nan nan 0 nan nan nan 0 1 1 2 3 7 7 4 4 3 1 1 0 nan nan 0 0 0 0 0 nan nan nan nan nan 0 nan nan nan nan 0 0 0 1 0 0 nan nan nan nan nan nan nan nan
nan nan nan nan nan nan nan nan nan nan nan nan nan nan nan nan 1 1 3 3 3 1 1 0 0 0 nan nan nan nan nan nan nan nan nan nan nan nan 0 1 1 1 2 2 2 2 3 4 4 6 8 4 2 2 0 0 0 0 0 0 0 0 0 nan nan nan nan 0 0 0 0 0 1 1 2 1 0 0 nan nan nan nan nan nan nan nan
nan nan nan nan nan nan nan nan nan nan nan nan nan nan nan nan nan nan 0 0 0 1 1 0 0 0 nan nan nan nan nan nan nan nan nan nan 0 0 1 1 1 2 3 2 2 2 1 0 0 0 3 7 3 3 0 0 0 0 0 0 0 0 0 nan nan 0 0 0 2 2 0 1 1 1 1 2 1 1 0 nan nan nan nan nan nan nan